NORTHERN QUEENS  -  Air Quality Alert Air Quality Alert        SOUTHERN QUEENS  -  Air Quality Alert Air Quality Alert      

Active alerts

Northern Queens
  Details for Northern Queens Air Quality Alert
Southern Queens
  Details for Southern Queens Air Quality Alert


WXM80 ListenWXM80 Stop

You find our weather info also at:

UK Metoffice

WeatherCloud

Weather Underground

Northeastern Weather Network

AWEKAS

Citizen Weather Observer Program (CWOP)

HAMweather, WeatherForYou, PWS Weather


Weather Underground History page Text

Daily Summary for August 29, 2017 Units:  English    Metric   Both
« Previous Day
Next Day »
Daily Weekly Monthly Yearly Custom
  High: Low: Average:
Temperature: 69.0 °F 62.5 °F 64.8 °F
Dew Point: 62.5 °F 57.5 °F 60.4 °F
Humidity: 96 % 77 % 86 %
Wind Speed: 8.4 mph 0.0 mph 2.8 mph
Wind Gust: 13.8 mph - -
Wind:- - East
Pressure: 30.22 in 29.93 in -
Precipitation: 0.32 in    
Historical Graphs
 
 
Tabular Data for August 29, 2017
Time Temperature Dew Point Pressure Wind Wind Speed Wind Gust Humidity Rainfall Rate (Hourly)
00:01 62.7 °F 57.5 °F 30.21 in SE 0.3 mph 2.0 mph 83 % 0.00 in
00:06 62.7 °F 57.5 °F 30.21 in Calm     83 % 0.00 in
00:11 62.7 °F 57.5 °F 30.21 in SE 0.3 mph 2.3 mph 83 % 0.00 in
00:16 62.8 °F 57.9 °F 30.21 in SE 0.1 mph 1.0 mph 84 % 0.00 in
00:21 62.8 °F 57.9 °F 30.21 in SE 0.1 mph 1.2 mph 84 % 0.00 in
00:26 62.7 °F 57.8 °F 30.21 in SE 0.1 mph 1.2 mph 84 % 0.00 in
00:31 62.7 °F 57.8 °F 30.22 in Calm     84 % 0.00 in
00:36 62.7 °F 57.8 °F 30.21 in SE 0.2 mph 2.0 mph 84 % 0.00 in
00:41 62.6 °F 57.7 °F 30.22 in Calm     84 % 0.00 in
00:46 62.5 °F 57.9 °F 30.22 in SE 0.1 mph 1.2 mph 85 % 0.00 in
00:52 62.6 °F 58.0 °F 30.22 in Calm   1.2 mph 85 % 0.00 in
00:57 62.6 °F 58.0 °F 30.22 in SE 0.3 mph 1.2 mph 85 % 0.00 in
01:02 62.6 °F 58.0 °F 30.21 in SE 0.2 mph 1.2 mph 85 % 0.00 in
01:07 62.6 °F 58.4 °F 30.22 in Calm   1.2 mph 86 % 0.00 in
01:12 62.7 °F 58.5 °F 30.22 in Calm   1.2 mph 86 % 0.00 in
01:17 62.7 °F 58.5 °F 30.22 in Calm   1.2 mph 86 % 0.00 in
01:22 62.8 °F 58.5 °F 30.22 in SE 0.2 mph 1.2 mph 86 % 0.00 in
01:27 62.8 °F 58.5 °F 30.21 in SE 0.1 mph 1.2 mph 86 % 0.00 in
01:32 62.8 °F 58.5 °F 30.21 in Calm   1.0 mph 86 % 0.00 in
01:37 62.8 °F 58.5 °F 30.21 in Calm     86 % 0.00 in
01:42 62.8 °F 58.5 °F 30.21 in Calm   1.2 mph 86 % 0.00 in
01:47 62.8 °F 58.5 °F 30.21 in SE 0.1 mph 2.3 mph 86 % 0.00 in
01:48 62.7 °F 58.5 °F 30.21 in Calm   1.2 mph 86 % 0.00 in
01:53 62.8 °F 58.5 °F 30.20 in Calm   1.2 mph 86 % 0.00 in
01:58 62.7 °F 58.5 °F 30.20 in Calm   1.2 mph 86 % 0.00 in
02:03 62.8 °F 58.5 °F 30.20 in SE 0.3 mph 1.2 mph 86 % 0.00 in
02:09 62.8 °F 58.5 °F 30.20 in SE 0.5 mph 1.2 mph 86 % 0.00 in
02:14 62.8 °F 58.5 °F 30.20 in SE 0.2 mph 3.5 mph 86 % 0.00 in
02:19 62.8 °F 58.5 °F 30.19 in SE 0.1 mph 1.2 mph 86 % 0.00 in
02:24 62.9 °F 58.3 °F 30.19 in SE 0.7 mph 3.5 mph 85 % 0.00 in
02:29 62.9 °F 58.3 °F 30.18 in SE 0.7 mph 2.3 mph 85 % 0.00 in
02:34 62.9 °F 58.3 °F 30.18 in SE 1.2 mph 2.3 mph 85 % 0.00 in
02:39 63.0 °F 58.4 °F 30.18 in SE 0.7 mph 2.3 mph 85 % 0.00 in
02:44 63.1 °F 58.5 °F 30.18 in SE 0.5 mph 1.2 mph 85 % 0.00 in
02:49 63.1 °F 58.8 °F 30.18 in SE 0.3 mph 1.2 mph 86 % 0.00 in
02:54 63.2 °F 58.9 °F 30.18 in SE 0.1 mph 1.2 mph 86 % 0.00 in
02:59 63.2 °F 58.9 °F 30.18 in Calm     86 % 0.00 in
03:04 63.2 °F 58.9 °F 30.18 in SE 0.2 mph 1.2 mph 86 % 0.00 in
03:09 63.2 °F 59.3 °F 30.17 in SE 1.2 mph 2.3 mph 87 % 0.00 in
03:15 63.3 °F 59.4 °F 30.17 in SE 1.0 mph 2.3 mph 87 % 0.00 in
03:20 63.4 °F 59.1 °F 30.17 in ESE 1.6 mph 3.5 mph 86 % 0.00 in
03:25 63.5 °F 59.2 °F 30.17 in ESE 0.7 mph 2.3 mph 86 % 0.00 in
03:30 63.6 °F 59.0 °F 30.17 in ESE 1.5 mph 2.3 mph 85 % 0.00 in
03:35 63.8 °F 59.2 °F 30.17 in ESE 1.1 mph 2.3 mph 85 % 0.00 in
03:40 63.9 °F 59.0 °F 30.17 in East 1.7 mph 3.5 mph 84 % 0.00 in
03:45 64.0 °F 58.7 °F 30.17 in East 1.6 mph 3.5 mph 83 % 0.00 in
03:50 64.1 °F 58.8 °F 30.16 in East 1.9 mph 2.3 mph 83 % 0.00 in
03:55 64.1 °F 58.8 °F 30.17 in East 1.2 mph 3.5 mph 83 % 0.00 in
04:01 64.2 °F 58.6 °F 30.17 in East 1.8 mph 3.5 mph 82 % 0.00 in
04:06 64.3 °F 58.3 °F 30.17 in East 2.0 mph 5.0 mph 81 % 0.00 in
04:11 64.4 °F 58.4 °F 30.16 in ESE 1.0 mph 3.0 mph 81 % 0.00 in
04:16 64.5 °F 58.5 °F 30.17 in East 1.0 mph 3.0 mph 81 % 0.00 in
04:21 64.6 °F 58.6 °F 30.17 in Calm   3.0 mph 81 % 0.00 in
04:26 64.5 °F 58.5 °F 30.17 in ESE 0.4 mph 1.2 mph 81 % 0.00 in
04:31 64.6 °F 58.6 °F 30.17 in ESE 1.0 mph 3.0 mph 81 % 0.00 in
04:36 64.6 °F 58.6 °F 30.17 in ESE 1.0 mph 3.0 mph 81 % 0.00 in
04:41 64.5 °F 58.9 °F 30.17 in Calm   2.0 mph 82 % 0.00 in
04:46 64.5 °F 58.9 °F 30.17 in Calm   5.0 mph 82 % 0.00 in
04:51 64.4 °F 58.8 °F 30.17 in ESE 0.9 mph 2.3 mph 82 % 0.00 in
04:54 64.4 °F 58.8 °F 30.17 in ESE 1.2 mph 3.5 mph 82 % 0.00 in
04:59 64.3 °F 58.7 °F 30.17 in East 0.5 mph 2.3 mph 82 % 0.00 in
05:04 64.3 °F 58.7 °F 30.17 in ESE 1.8 mph 3.5 mph 82 % 0.00 in
05:09 64.3 °F 58.7 °F 30.17 in ESE 1.0 mph 2.3 mph 82 % 0.00 in
05:14 64.3 °F 58.7 °F 30.17 in East 0.2 mph 2.3 mph 82 % 0.00 in
05:19 64.3 °F 58.7 °F 30.17 in East 1.3 mph 2.3 mph 82 % 0.00 in
05:24 64.3 °F 58.7 °F 30.17 in ESE 0.7 mph 3.5 mph 82 % 0.00 in
05:29 64.3 °F 58.7 °F 30.18 in SE 1.4 mph 2.3 mph 82 % 0.00 in
05:34 64.3 °F 58.7 °F 30.18 in SE 0.8 mph 2.3 mph 82 % 0.00 in
05:39 64.3 °F 58.7 °F 30.18 in SE 1.1 mph 3.5 mph 82 % 0.00 in
05:44 64.3 °F 58.7 °F 30.18 in SE 0.6 mph 2.3 mph 82 % 0.00 in
05:49 64.3 °F 58.7 °F 30.18 in ESE 1.7 mph 3.5 mph 82 % 0.00 in
05:54 64.3 °F 58.7 °F 30.18 in East 1.5 mph 3.5 mph 82 % 0.00 in
05:59 64.4 °F 58.4 °F 30.18 in ESE 0.8 mph 3.5 mph 81 % 0.00 in
06:04 64.5 °F 58.5 °F 30.18 in East 0.4 mph 3.5 mph 81 % 0.00 in
06:10 64.5 °F 58.5 °F 30.18 in ESE 0.5 mph 2.3 mph 81 % 0.00 in
06:14 64.6 °F 58.6 °F 30.17 in East 2.5 mph 3.5 mph 81 % 0.00 in
06:20 64.6 °F 58.6 °F 30.17 in East 2.5 mph 3.5 mph 81 % 0.00 in
06:25 64.7 °F 58.7 °F 30.18 in East 1.5 mph 2.3 mph 81 % 0.00 in
06:30 64.7 °F 58.7 °F 30.18 in East 1.6 mph 3.5 mph 81 % 0.00 in
06:35 64.8 °F 58.5 °F 30.18 in East 2.2 mph 4.6 mph 80 % 0.00 in
06:40 64.9 °F 58.6 °F 30.18 in East 1.5 mph 3.5 mph 80 % 0.00 in
06:45 64.9 °F 58.6 °F 30.18 in East 2.9 mph 4.6 mph 80 % 0.00 in
06:50 64.9 °F 58.6 °F 30.18 in East 2.2 mph 4.6 mph 80 % 0.00 in
06:55 65.0 °F 58.3 °F 30.18 in ESE 2.2 mph 3.5 mph 79 % 0.00 in
07:00 65.0 °F 58.7 °F 30.18 in East 2.1 mph 3.5 mph 80 % 0.00 in
07:05 65.1 °F 58.4 °F 30.18 in East 1.6 mph 3.5 mph 79 % 0.00 in
07:10 65.1 °F 58.4 °F 30.18 in East 2.0 mph 3.5 mph 79 % 0.00 in
07:16 65.2 °F 58.5 °F 30.18 in East 2.1 mph 5.0 mph 79 % 0.00 in
07:21 65.3 °F 58.6 °F 30.18 in East 2.0 mph 6.0 mph 79 % 0.00 in
07:26 65.3 °F 58.6 °F 30.17 in East 2.0 mph 3.0 mph 79 % 0.00 in
07:31 65.3 °F 58.6 °F 30.18 in East 2.0 mph 5.0 mph 79 % 0.00 in
07:36 65.4 °F 59.1 °F 30.18 in East 1.0 mph 3.0 mph 80 % 0.00 in
07:41 65.4 °F 59.1 °F 30.18 in East 2.0 mph 3.0 mph 80 % 0.00 in
07:46 65.5 °F 59.2 °F 30.18 in East 2.0 mph 3.0 mph 80 % 0.00 in
07:51 65.5 °F 59.2 °F 30.18 in East 1.0 mph 3.0 mph 80 % 0.00 in
07:56 65.6 °F 59.3 °F 30.18 in East 2.0 mph 5.0 mph 80 % 0.00 in
08:01 65.7 °F 59.4 °F 30.18 in East 0.9 mph 2.3 mph 80 % 0.00 in
08:06 65.8 °F 59.5 °F 30.18 in ESE 2.0 mph 3.5 mph 80 % 0.00 in
08:11 65.9 °F 59.6 °F 30.17 in East 1.8 mph 3.5 mph 80 % 0.00 in
08:16 66.0 °F 59.7 °F 30.17 in East 2.0 mph 5.0 mph 80 % 0.00 in
08:21 66.1 °F 59.7 °F 30.17 in East 2.0 mph 3.0 mph 80 % 0.00 in
08:26 66.1 °F 60.1 °F 30.17 in East 2.0 mph 3.5 mph 81 % 0.00 in
08:31 66.3 °F 61.3 °F 30.16 in East 3.0 mph 5.0 mph 84 % 0.00 in
08:36 66.4 °F 61.4 °F 30.16 in East 2.0 mph 5.0 mph 84 % 0.00 in
08:41 66.6 °F 61.9 °F 30.16 in ENE 5.0 mph 9.0 mph 85 % 0.00 in
08:45 66.6 °F 62.3 °F 30.16 in East 3.5 mph 6.9 mph 86 % 0.00 in
08:50 66.7 °F 62.4 °F 30.17 in ENE 3.5 mph 11.5 mph 86 % 0.00 in
08:55 66.7 °F 62.0 °F 30.16 in ENE 4.8 mph 9.2 mph 85 % 0.00 in
09:01 66.7 °F 62.4 °F 30.16 in ENE 4.6 mph 9.2 mph 86 % 0.00 in
09:06 66.6 °F 61.9 °F 30.17 in NE 4.4 mph 8.1 mph 85 % 0.00 in
09:11 66.6 °F 61.9 °F 30.16 in ENE 3.6 mph 8.1 mph 85 % 0.00 in
09:16 66.5 °F 61.8 °F 30.16 in NE 2.2 mph 5.0 mph 85 % 0.00 in
09:21 66.5 °F 61.8 °F 30.16 in ENE 3.6 mph 6.9 mph 85 % 0.00 in
09:26 66.5 °F 62.2 °F 30.16 in ENE 3.7 mph 8.0 mph 86 % 0.00 in
09:31 66.5 °F 61.8 °F 30.16 in ENE 2.8 mph 5.0 mph 85 % 0.00 in
09:36 66.4 °F 61.8 °F 30.17 in ENE 2.7 mph 3.5 mph 85 % 0.00 in
09:41 66.4 °F 61.8 °F 30.16 in NE 3.3 mph 6.9 mph 85 % 0.00 in
09:46 66.4 °F 61.8 °F 30.17 in ENE 3.5 mph 4.6 mph 85 % 0.00 in
09:51 66.4 °F 61.4 °F 30.17 in ENE 4.1 mph 8.1 mph 84 % 0.00 in
09:56 66.4 °F 61.8 °F 30.17 in ENE 3.0 mph 4.6 mph 85 % 0.00 in
10:02 66.4 °F 61.4 °F 30.17 in ENE 2.6 mph 3.5 mph 84 % 0.00 in
10:12 66.4 °F 61.4 °F 30.16 in East 3.2 mph 6.0 mph 84 % 0.00 in
10:17 66.5 °F 61.2 °F 30.16 in ENE 4.6 mph 4.6 mph 83 % 0.00 in
10:22 66.5 °F 60.8 °F 30.16 in ENE 3.0 mph 5.8 mph 82 % 0.00 in
10:27 66.5 °F 61.2 °F 30.16 in East 2.8 mph 5.0 mph 83 % 0.00 in
10:32 66.6 °F 61.3 °F 30.16 in East 2.9 mph 4.6 mph 83 % 0.00 in
10:37 66.6 °F 61.3 °F 30.16 in East 3.0 mph 4.6 mph 83 % 0.00 in
10:42 66.8 °F 61.5 °F 30.15 in ENE 3.0 mph 3.5 mph 83 % 0.00 in
10:47 67.0 °F 61.7 °F 30.16 in East 3.1 mph 5.0 mph 83 % 0.00 in
10:52 67.0 °F 61.3 °F 30.15 in ENE 2.8 mph 6.9 mph 82 % 0.00 in
10:57 67.1 °F 61.8 °F 30.16 in East 3.5 mph 8.1 mph 83 % 0.00 in
11:02 67.2 °F 61.9 °F 30.16 in East 3.9 mph 5.8 mph 83 % 0.00 in
11:07 67.3 °F 62.0 °F 30.16 in East 2.7 mph 3.5 mph 83 % 0.00 in
11:12 67.5 °F 62.5 °F 30.16 in ENE 2.7 mph 4.6 mph 84 % 0.00 in
11:17 67.6 °F 62.3 °F 30.16 in ENE 2.2 mph 3.5 mph 83 % 0.00 in
11:22 67.8 °F 61.8 °F 30.16 in East 2.5 mph 4.6 mph 81 % 0.00 in
11:27 67.8 °F 61.4 °F 30.15 in ENE 2.6 mph 4.6 mph 80 % 0.00 in
11:32 67.9 °F 61.1 °F 30.15 in East 2.9 mph 4.6 mph 79 % 0.00 in
11:38 67.9 °F 61.1 °F 30.15 in ESE 2.3 mph 3.5 mph 79 % 0.00 in
11:43 67.9 °F 61.1 °F 30.15 in East 3.2 mph 4.6 mph 79 % 0.00 in
11:48 67.8 °F 61.0 °F 30.15 in East 2.5 mph 4.6 mph 79 % 0.00 in
11:53 67.8 °F 61.0 °F 30.15 in East 1.7 mph 3.5 mph 79 % 0.00 in
11:58 67.9 °F 61.1 °F 30.14 in East 2.4 mph 5.0 mph 79 % 0.00 in
12:03 68.0 °F 61.6 °F 30.14 in East 1.6 mph 3.5 mph 80 % 0.00 in
12:08 68.2 °F 61.4 °F 30.14 in East 2.8 mph 5.8 mph 79 % 0.00 in
12:13 68.3 °F 61.5 °F 30.14 in East 2.3 mph 3.5 mph 79 % 0.00 in
12:18 68.5 °F 62.1 °F 30.14 in East 2.1 mph 3.5 mph 80 % 0.00 in
12:23 68.7 °F 61.9 °F 30.14 in East 2.7 mph 4.6 mph 79 % 0.00 in
12:28 68.8 °F 62.0 °F 30.14 in NE 2.5 mph 3.5 mph 79 % 0.00 in
12:33 69.0 °F 61.9 °F 30.14 in East 2.6 mph 4.6 mph 78 % 0.00 in
12:38 69.0 °F 61.5 °F 30.14 in East 3.3 mph 4.6 mph 77 % 0.00 in
12:43 69.0 °F 61.9 °F 30.14 in ENE 2.8 mph 4.6 mph 78 % 0.00 in
12:48 68.9 °F 61.8 °F 30.14 in ENE 3.1 mph 4.6 mph 78 % 0.00 in
12:53 68.8 °F 62.0 °F 30.14 in ENE 2.7 mph 3.5 mph 79 % 0.00 in
12:58 68.7 °F 61.9 °F 30.14 in ENE 2.5 mph 3.5 mph 79 % 0.00 in
13:03 68.7 °F 62.3 °F 30.14 in ENE 2.5 mph 4.0 mph 80 % 0.00 in
13:08 68.7 °F 62.3 °F 30.13 in ENE 2.5 mph 3.5 mph 80 % 0.00 in
13:13 68.6 °F 61.5 °F 30.14 in East 2.0 mph 3.5 mph 78 % 0.00 in
13:18 68.5 °F 61.0 °F 30.14 in East 3.3 mph 4.6 mph 77 % 0.00 in
13:24 68.4 °F 61.3 °F 30.14 in ENE 2.6 mph 4.6 mph 78 % 0.00 in
13:29 68.3 °F 60.8 °F 30.14 in East 3.5 mph 4.6 mph 77 % 0.00 in
13:34 68.2 °F 60.7 °F 30.13 in East 4.1 mph 5.8 mph 77 % 0.00 in
13:39 68.1 °F 61.0 °F 30.13 in East 2.8 mph 4.6 mph 78 % 0.00 in
13:44 68.1 °F 60.6 °F 30.13 in East 3.8 mph 5.8 mph 77 % 0.00 in
13:49 68.0 °F 60.5 °F 30.13 in ENE 3.1 mph 4.6 mph 77 % 0.00 in
13:54 67.9 °F 60.4 °F 30.12 in East 3.1 mph 5.8 mph 77 % 0.00 in
13:59 68.0 °F 61.2 °F 30.12 in East 3.5 mph 5.0 mph 79 % 0.00 in
14:04 68.0 °F 60.9 °F 30.11 in East 3.6 mph 5.0 mph 78 % 0.00 in
14:09 68.1 °F 61.0 °F 30.11 in ENE 3.6 mph 5.8 mph 78 % 0.00 in
14:14 68.0 °F 61.2 °F 30.11 in ENE 3.3 mph 4.6 mph 79 % 0.00 in
14:19 68.0 °F 61.2 °F 30.11 in ENE 2.2 mph 3.5 mph 79 % 0.00 in
14:24 68.0 °F 61.2 °F 30.11 in East 2.4 mph 3.5 mph 79 % 0.00 in
14:29 67.9 °F 61.1 °F 30.11 in ENE 2.9 mph 5.0 mph 79 % 0.00 in
14:34 67.8 °F 61.0 °F 30.11 in ENE 4.5 mph 9.0 mph 79 % 0.00 in
14:39 67.7 °F 61.0 °F 30.11 in ENE 3.3 mph 4.6 mph 79 % 0.00 in
14:44 67.7 °F 61.0 °F 30.11 in East 3.5 mph 6.9 mph 79 % 0.00 in
14:49 67.6 °F 61.2 °F 30.10 in ENE 2.7 mph 4.6 mph 80 % 0.00 in
14:54 67.6 °F 61.9 °F 30.10 in ENE 2.8 mph 3.5 mph 82 % 0.00 in
14:59 67.4 °F 62.1 °F 30.10 in East 2.9 mph 3.5 mph 83 % 0.00 in
15:04 67.2 °F 62.2 °F 30.10 in ENE 2.5 mph 3.5 mph 84 % 0.00 in
15:09 67.0 °F 62.3 °F 30.09 in ENE 3.6 mph 4.6 mph 85 % 0.00 in
15:14 66.7 °F 62.0 °F 30.09 in East 3.4 mph 5.8 mph 85 % 0.00 in
15:20 66.5 °F 62.2 °F 30.09 in East 3.4 mph 4.6 mph 86 % 0.00 in
15:25 66.2 °F 62.2 °F 30.09 in East 3.6 mph 5.8 mph 87 % 0.01 in
15:30 65.9 °F 62.2 °F 30.08 in East 2.9 mph 5.8 mph 88 % 0.01 in
15:35 65.8 °F 62.1 °F 30.08 in East 2.9 mph 4.6 mph 88 % 0.01 in
15:40 65.6 °F 61.9 °F 30.08 in East 2.7 mph 4.6 mph 88 % 0.02 in
15:45 65.4 °F 61.8 °F 30.08 in East 3.4 mph 5.8 mph 88 % 0.02 in
15:50 65.2 °F 61.9 °F 30.08 in East 4.6 mph 5.8 mph 89 % 0.02 in
15:55 65.1 °F 61.8 °F 30.08 in ENE 3.1 mph 4.6 mph 89 % 0.02 in
16:00 65.0 °F 61.7 °F 30.08 in East 2.7 mph 4.6 mph 89 % 0.03 in
16:05 64.8 °F 61.5 °F 30.08 in East 3.7 mph 4.6 mph 89 % 0.03 in
16:10 64.6 °F 61.3 °F 30.08 in East 3.6 mph 5.8 mph 89 % 0.03 in
16:15 64.5 °F 61.2 °F 30.08 in East 3.3 mph 5.8 mph 89 % 0.03 in
16:20 64.4 °F 61.1 °F 30.08 in East 2.0 mph 3.5 mph 89 % 0.02 in
16:23 64.3 °F 61.0 °F 30.08 in East 2.7 mph 4.6 mph 89 % 0.03 in
16:28 64.3 °F 61.0 °F 30.07 in East 2.9 mph 5.0 mph 89 % 0.03 in
16:33 64.1 °F 60.8 °F 30.07 in East 3.6 mph 5.0 mph 89 % 0.03 in
16:38 64.1 °F 61.1 °F 30.07 in East 2.3 mph 4.6 mph 90 % 0.02 in
16:43 64.1 °F 61.1 °F 30.07 in East 3.1 mph 4.6 mph 90 % 0.02 in
16:48 64.0 °F 61.0 °F 30.06 in East 3.3 mph 4.6 mph 90 % 0.02 in
16:53 64.0 °F 61.0 °F 30.06 in East 3.0 mph 4.6 mph 90 % 0.03 in
16:56 64.0 °F 61.0 °F 30.06 in East 4.2 mph 5.0 mph 90 % 0.03 in
17:01 63.9 °F 61.2 °F 30.06 in East 5.0 mph 5.8 mph 91 % 0.02 in
17:06 64.0 °F 61.3 °F 30.05 in East 3.3 mph 7.0 mph 91 % 0.02 in
17:11 64.0 °F 61.3 °F 30.05 in East 4.3 mph 6.0 mph 91 % 0.03 in
17:16 63.8 °F 61.1 °F 30.05 in East 4.0 mph 5.8 mph 91 % 0.03 in
17:21 63.9 °F 61.2 °F 30.05 in East 5.1 mph 7.0 mph 91 % 0.02 in
17:26 63.9 °F 61.5 °F 30.05 in East 4.0 mph 5.8 mph 92 % 0.03 in
17:31 63.8 °F 61.1 °F 30.05 in East 5.1 mph 5.8 mph 91 % 0.03 in
17:36 63.8 °F 61.4 °F 30.05 in East 3.5 mph 4.6 mph 92 % 0.03 in
17:41 63.8 °F 61.4 °F 30.05 in East 3.6 mph 6.0 mph 92 % 0.03 in
17:46 63.7 °F 61.3 °F 30.04 in East 4.6 mph 6.0 mph 92 % 0.04 in
17:51 63.7 °F 61.3 °F 30.04 in East 3.2 mph 5.8 mph 92 % 0.03 in
17:56 63.8 °F 61.7 °F 30.04 in East 4.7 mph 6.0 mph 93 % 0.03 in
18:11 63.6 °F 61.2 °F 30.03 in East 4.2 mph 5.8 mph 92 % 0.03 in
18:21 63.7 °F 61.6 °F 30.03 in East 4.5 mph 5.8 mph 93 % 0.03 in
18:26 63.7 °F 61.6 °F 30.03 in ENE 3.3 mph 5.8 mph 93 % 0.02 in
18:31 63.7 °F 61.3 °F 30.03 in East 4.9 mph 5.8 mph 92 % 0.03 in
18:36 63.6 °F 61.2 °F 30.03 in ENE 8.4 mph 12.7 mph 92 % 0.03 in
18:41 63.6 °F 60.9 °F 30.03 in East 5.5 mph 9.0 mph 91 % 0.03 in
18:46 63.5 °F 60.8 °F 30.03 in East 7.7 mph 12.7 mph 91 % 0.02 in
18:52 63.4 °F 60.4 °F 30.02 in ENE 7.7 mph 9.2 mph 90 % 0.03 in
18:57 63.4 °F 60.4 °F 30.03 in ENE 5.0 mph 11.5 mph 90 % 0.03 in
19:02 63.3 °F 60.3 °F 30.03 in East 5.1 mph 10.4 mph 90 % 0.02 in
19:07 63.2 °F 60.2 °F 30.02 in ENE 4.6 mph 5.8 mph 90 % 0.03 in
19:12 63.0 °F 60.0 °F 30.02 in ENE 5.1 mph 6.9 mph 90 % 0.03 in
19:17 63.0 °F 60.0 °F 30.02 in East 5.1 mph 6.9 mph 90 % 0.03 in
19:22 62.8 °F 59.5 °F 30.03 in East 5.5 mph 7.0 mph 89 % 0.03 in
19:27 62.7 °F 59.7 °F 30.02 in East 5.6 mph 8.0 mph 90 % 0.02 in
19:32 62.8 °F 59.8 °F 30.02 in East 5.3 mph 6.9 mph 90 % 0.02 in
19:37 62.8 °F 60.1 °F 30.02 in ENE 5.4 mph 8.1 mph 91 % 0.03 in
19:42 62.9 °F 59.9 °F 30.02 in East 4.1 mph 6.0 mph 90 % 0.03 in
19:47 62.9 °F 60.2 °F 30.02 in East 4.3 mph 9.0 mph 91 % 0.03 in
19:52 62.9 °F 60.2 °F 30.02 in East 4.6 mph 5.8 mph 91 % 0.02 in
19:57 62.9 °F 60.2 °F 30.01 in East 4.9 mph 6.0 mph 91 % 0.02 in
20:03 63.0 °F 60.6 °F 30.01 in East 3.5 mph 8.1 mph 92 % 0.02 in
20:06 63.1 °F 60.7 °F 30.01 in East 5.9 mph 7.0 mph 92 % 0.01 in
20:11 63.1 °F 60.7 °F 30.01 in ENE 3.1 mph 5.8 mph 92 % 0.02 in
20:16 63.2 °F 60.8 °F 30.02 in East 3.3 mph 5.0 mph 92 % 0.02 in
20:21 63.3 °F 60.9 °F 30.02 in East 3.4 mph 4.6 mph 92 % 0.02 in
20:26 63.3 °F 60.9 °F 30.02 in East 4.3 mph 5.8 mph 92 % 0.02 in
20:31 63.2 °F 61.1 °F 30.01 in East 3.9 mph 5.0 mph 93 % 0.02 in
20:36 63.1 °F 60.7 °F 30.00 in East 4.2 mph 5.0 mph 92 % 0.02 in
20:41 63.2 °F 61.1 °F 30.00 in East 5.2 mph 6.9 mph 93 % 0.02 in
20:46 63.1 °F 61.0 °F 30.00 in ENE 4.8 mph 6.9 mph 93 % 0.02 in
20:51 63.1 °F 61.0 °F 30.00 in East 3.4 mph 5.8 mph 93 % 0.03 in
20:56 63.1 °F 61.0 °F 30.00 in ENE 4.6 mph 5.0 mph 93 % 0.03 in
21:01 63.1 °F 61.0 °F 30.01 in East 4.3 mph 5.8 mph 93 % 0.03 in
21:06 63.2 °F 61.4 °F 30.01 in East 3.5 mph 6.9 mph 94 % 0.03 in
21:11 63.3 °F 61.5 °F 30.01 in ENE 3.7 mph 4.6 mph 94 % 0.03 in
21:16 63.4 °F 61.6 °F 30.01 in ENE 3.4 mph 8.1 mph 94 % 0.03 in
21:21 63.4 °F 61.6 °F 30.00 in East 3.7 mph 6.0 mph 94 % 0.04 in
21:26 63.3 °F 61.5 °F 30.00 in ENE 5.6 mph 9.2 mph 94 % 0.04 in
21:31 63.3 °F 61.5 °F 30.00 in ENE 4.0 mph 5.8 mph 94 % 0.05 in
21:37 63.4 °F 61.6 °F 30.00 in East 5.2 mph 9.2 mph 94 % 0.04 in
21:41 63.3 °F 61.5 °F 30.00 in ENE 4.2 mph 8.1 mph 94 % 0.05 in
21:47 63.4 °F 61.9 °F 30.00 in ENE 3.2 mph 11.5 mph 95 % 0.05 in
21:52 63.4 °F 61.9 °F 29.99 in ENE 7.1 mph 10.0 mph 95 % 0.04 in
21:57 63.4 °F 61.9 °F 29.99 in ENE 6.3 mph 9.2 mph 95 % 0.05 in
22:02 63.4 °F 61.9 °F 29.98 in ENE 7.4 mph 12.7 mph 95 % 0.05 in
22:07 63.3 °F 61.8 °F 29.98 in ENE 5.5 mph 10.4 mph 95 % 0.06 in
22:12 63.2 °F 61.7 °F 29.97 in East 7.5 mph 11.5 mph 95 % 0.06 in
22:17 63.2 °F 61.7 °F 29.97 in ENE 6.7 mph 11.5 mph 95 % 0.07 in
22:22 63.1 °F 61.6 °F 29.97 in East 5.5 mph 8.1 mph 95 % 0.06 in
22:27 63.1 °F 61.6 °F 29.97 in East 5.5 mph 6.0 mph 95 % 0.06 in
22:32 63.1 °F 61.6 °F 29.97 in East 3.8 mph 5.8 mph 95 % 0.05 in
22:37 63.2 °F 62.0 °F 29.97 in ENE 4.6 mph 5.8 mph 96 % 0.06 in
22:42 63.2 °F 62.0 °F 29.97 in East 4.4 mph 6.9 mph 96 % 0.05 in
22:47 63.2 °F 62.0 °F 29.97 in SE 3.4 mph 6.9 mph 96 % 0.05 in
22:52 63.2 °F 62.0 °F 29.97 in East 3.6 mph 5.8 mph 96 % 0.05 in
22:57 63.2 °F 62.0 °F 29.97 in East 4.2 mph 6.0 mph 96 % 0.05 in
23:02 63.3 °F 62.1 °F 29.97 in East 5.0 mph 8.1 mph 96 % 0.05 in
23:07 63.3 °F 62.1 °F 29.97 in East 4.2 mph 5.8 mph 96 % 0.05 in
23:12 63.1 °F 61.9 °F 29.97 in East 3.0 mph 5.8 mph 96 % 0.04 in
23:17 63.0 °F 61.8 °F 29.97 in ENE 3.4 mph 4.6 mph 96 % 0.04 in
23:22 63.1 °F 61.9 °F 29.97 in ENE 3.7 mph 5.8 mph 96 % 0.04 in
23:27 63.1 °F 61.9 °F 29.96 in East 2.4 mph 5.0 mph 96 % 0.05 in
23:32 63.2 °F 62.0 °F 29.95 in East 4.7 mph 6.0 mph 96 % 0.06 in
23:37 63.2 °F 62.0 °F 29.95 in ENE 4.0 mph 6.9 mph 96 % 0.06 in
23:42 63.2 °F 62.0 °F 29.95 in ENE 6.9 mph 9.2 mph 96 % 0.06 in
23:52 63.4 °F 62.2 °F 29.94 in ENE 7.8 mph 13.8 mph 96 % 0.07 in
23:57 63.4 °F 62.2 °F 29.93 in ENE 5.8 mph 12.7 mph 96 % 0.06 in
Crab Meadow Weather
Compliments of Weather Underground - 3 mb

Script developed by  Jim McMurry - jmcmurry@mwt.net Adapted for the template by  Wim van der Kuil - Leuven-Template.eu

Weather Terms: Downburst - A strong downdraft from a thunderstorm resulting in an outward burst of damaging winds on or near the ground. Downburst winds are often 50 to 100 mph and in a few cases, 100 to 150 mph. They can do as much damage as a small tornado.